When you browse on this site, cookies collect data to enhance your experience and personalize the content and advertising you see.
Visit our Privacy Policy to learn more. By continuing to use the site, you agree to this use of cookies and data.
  • In Belgien
  • Länderverzeichnis
  • Für 7 Tage
  • Wassertemperatur
  • Satellitenkarten
  • Wetterkarte
  • Widgets
  • user-avatar
    Anmelden

    Stündliche Wetter Chardzhou

    Heute, 11 Dezember, Dienstag

    Zeit Temperatur Niederschläge Wind Luftdruck Luftfeuchtigkeit
    00:00 +8°C° 0 mm 1 m/S 750 mmHg 52%
    01:00 +6°C° 0 mm 2 m/S 750 mmHg 53%
    02:00 +6°C° 0 mm 2 m/S 749 mmHg 53%
    03:00 +6°C° 0 mm 2 m/S 749 mmHg 53%
    04:00 +6°C° 0 mm 2 m/S 749 mmHg 54%
    05:00 +6°C° 0 mm 2 m/S 749 mmHg 54%
    06:00 +6°C° 0 mm 2 m/S 750 mmHg 55%
    07:00 +5°C° 0 mm 2 m/S 750 mmHg 55%
    08:00 +6°C° 0 mm 2 m/S 750 mmHg 51%
    09:00 +8°C° 0 mm 2 m/S 750 mmHg 47%
    10:00 +9°C° 0 mm 2 m/S 751 mmHg 43%
    11:00 +10°C° 0 mm 2 m/S 750 mmHg 41%
    12:00 +10°C° 0 mm 2 m/S 750 mmHg 38%
    13:00 +12°C° 0 mm 2 m/S 750 mmHg 36%
    14:00 +12°C° 0 mm 2 m/S 750 mmHg 36%
    15:00 +12°C° 0 mm 2 m/S 750 mmHg 36%
    16:00 +12°C° 0 mm 2 m/S 750 mmHg 37%
    17:00 +12°C° 0 mm 2 m/S 750 mmHg 39%
    18:00 +10°C° 0 mm 3 m/S 750 mmHg 41%
    19:00 +9°C° 0 mm 3 m/S 750 mmHg 44%
    20:00 +9°C° 0 mm 3 m/S 750 mmHg 45%
    21:00 +9°C° 0 mm 3 m/S 750 mmHg 47%
    22:00 +8°C° 0 mm 3 m/S 750 mmHg 48%
    23:00 +8°C° 0 mm 3 m/S 749 mmHg 49%

    Morgen, 12 Dezember, Mittwoch

    Zeit Temperatur Niederschläge Wind Luftdruck Luftfeuchtigkeit
    00:00 +8°C° 0 mm 3 m/S 749 mmHg 51%
    01:00 +8°C° 0 mm 3 m/S 749 mmHg 52%
    02:00 +8°C° 0 mm 3 m/S 749 mmHg 54%
    03:00 +7°C° 0 mm 3 m/S 749 mmHg 56%
    04:00 +7°C° 0 mm 3 m/S 749 mmHg 57%
    05:00 +7°C° 0 mm 3 m/S 749 mmHg 59%
    06:00 +7°C° 0 mm 3 m/S 749 mmHg 61%
    07:00 +6°C° 0 mm 4 m/S 749 mmHg 62%
    08:00 +7°C° 0 mm 4 m/S 750 mmHg 58%
    09:00 +9°C° 0 mm 5 m/S 750 mmHg 54%
    10:00 +10°C° 0 mm 5 m/S 750 mmHg 49%
    11:00 +12°C° 0 mm 5 m/S 749 mmHg 45%
    12:00 +13°C° 0 mm 6 m/S 749 mmHg 41%
    13:00 +14°C° 0 mm 6 m/S 749 mmHg 37%
    14:00 +14°C° 0 mm 6 m/S 748 mmHg 37%
    15:00 +14°C° 0 mm 5 m/S 748 mmHg 37%
    16:00 +14°C° 0 mm 4 m/S 748 mmHg 37%
    17:00 +13°C° 0 mm 4 m/S 748 mmHg 38%
    18:00 +12°C° 0 mm 5 m/S 748 mmHg 40%
    19:00 +12°C° 0 mm 5 m/S 748 mmHg 42%
    20:00 +10°C° 0 mm 5 m/S 748 mmHg 41%
    21:00 +10°C° 0 mm 5 m/S 748 mmHg 41%
    22:00 +9°C° 0 mm 6 m/S 748 mmHg 41%
    23:00 +9°C° 0 mm 6 m/S 747 mmHg 41%

    übermorgen, 13 Dezember, Donnerstag

    Zeit Temperatur Niederschläge Wind Luftdruck Luftfeuchtigkeit
    00:00 +9°C° 0 mm 6 m/S 747 mmHg 40%
    01:00 +8°C° 0 mm 5 m/S 747 mmHg 40%
    02:00 +8°C° 0 mm 6 m/S 747 mmHg 39%
    03:00 +8°C° 0 mm 6 m/S 747 mmHg 39%
    04:00 +8°C° 0 mm 6 m/S 747 mmHg 39%
    05:00 +8°C° 0 mm 6 m/S 747 mmHg 38%
    06:00 +6°C° 0 mm 7 m/S 747 mmHg 37%
    07:00 +6°C° 0 mm 7 m/S 747 mmHg 36%
    08:00 +9°C° 0 mm 8 m/S 747 mmHg 32%
    09:00 +10°C° 0 mm 9 m/S 747 mmHg 28%
    10:00 +12°C° 0 mm 10 m/S 747 mmHg 24%
    11:00 +13°C° 0 mm 9 m/S 747 mmHg 23%
    12:00 +16°C° 0 mm 9 m/S 746 mmHg 21%
    13:00 +17°C° 0 mm 9 m/S 746 mmHg 19%
    14:00 +17°C° 0 mm 8 m/S 745 mmHg 19%
    15:00 +16°C° 0 mm 8 m/S 745 mmHg 19%
    16:00 +16°C° 0 mm 7 m/S 745 mmHg 19%
    17:00 +15°C° 0 mm 8 m/S 745 mmHg 19%
    18:00 +13°C° 0 mm 8 m/S 745 mmHg 19%
    19:00 +13°C° 0 mm 8 m/S 745 mmHg 19%
    20:00 +12°C° 0 mm 8 m/S 746 mmHg 19%
    21:00 +12°C° 0 mm 9 m/S 746 mmHg 19%
    22:00 +11°C° 0 mm 9 m/S 746 mmHg 19%
    23:00 +11°C° 0 mm 8 m/S 745 mmHg 19%

    14 Dezember, Freitag

    Zeit Temperatur Niederschläge Wind Luftdruck Luftfeuchtigkeit
    00:00 +11°C° 0 mm 8 m/S 745 mmHg 20%
    01:00 +10°C° 0 mm 8 m/S 745 mmHg 20%
    02:00 +10°C° 0 mm 8 m/S 745 mmHg 20%
    03:00 +10°C° 0 mm 8 m/S 745 mmHg 20%
    04:00 +10°C° 0 mm 8 m/S 745 mmHg 21%
    05:00 +9°C° 0 mm 7 m/S 746 mmHg 22%
    06:00 +9°C° 0 mm 7 m/S 746 mmHg 23%
    07:00 +9°C° 0 mm 6 m/S 747 mmHg 24%
    08:00 +10°C° 0 mm 6 m/S 747 mmHg 25%
    09:00 +11°C° 0 mm 6 m/S 747 mmHg 25%
    10:00 +13°C° 0 mm 6 m/S 748 mmHg 26%
    11:00 +14°C° 0 mm 5 m/S 748 mmHg 26%
    12:00 +14°C° 0 mm 5 m/S 748 mmHg 26%
    13:00 +15°C° 0 mm 4 m/S 748 mmHg 27%
    14:00 +14°C° 0 mm 5 m/S 748 mmHg 30%
    15:00 +14°C° 0 mm 5 m/S 749 mmHg 33%
    16:00 +13°C° 0 mm 5 m/S 749 mmHg 36%
    17:00 +12°C° 0 mm 5 m/S 750 mmHg 45%
    18:00 +10°C° 0 mm 5 m/S 751 mmHg 54%
    19:00 +10°C° 0 mm 4 m/S 751 mmHg 63%
    20:00 +10°C° 0 mm 4 m/S 751 mmHg 67%
    21:00 +8°C° 0 mm 4 m/S 752 mmHg 71%
    22:00 +8°C° 0 mm 3 m/S 752 mmHg 75%
    23:00 +8°C° 0 mm 3 m/S 752 mmHg 75%

    15 Dezember, Samstag

    Zeit Temperatur Niederschläge Wind Luftdruck Luftfeuchtigkeit
    00:00 +8°C° 0 mm 3 m/S 752 mmHg 75%
    01:00 +7°C° 0 mm 3 m/S 752 mmHg 75%
    02:00 +7°C° 0 mm 3 m/S 752 mmHg 75%
    03:00 +7°C° 0 mm 3 m/S 752 mmHg 75%
    04:00 +6°C° 0 mm 2 m/S 752 mmHg 75%
    05:00 +6°C° 0 mm 2 m/S 752 mmHg 75%
    06:00 +6°C° 0 mm 2 m/S 752 mmHg 75%
    07:00 +6°C° 0 mm 2 m/S 752 mmHg 75%
    08:00 +7°C° 0 mm 2 m/S 752 mmHg 72%
    09:00 +8°C° 0 mm 2 m/S 752 mmHg 69%
    10:00 +8°C° 0 mm 2 m/S 752 mmHg 66%
    11:00 +9°C° 0 mm 2 m/S 752 mmHg 61%
    12:00 +11°C° 0 mm 1 m/S 751 mmHg 56%
    13:00 +13°C° 0 mm 1 m/S 751 mmHg 51%
    14:00 +13°C° 0 mm 1 m/S 751 mmHg 50%
    15:00 +13°C° 0 mm 1 m/S 751 mmHg 49%
    16:00 +13°C° 0 mm 2 m/S 751 mmHg 48%
    17:00 +12°C° 0 mm 2 m/S 751 mmHg 50%
    18:00 +12°C° 0 mm 2 m/S 751 mmHg 52%
    19:00 +10°C° 0 mm 2 m/S 751 mmHg 54%
    20:00 +10°C° 0 mm 2 m/S 751 mmHg 55%
    21:00 +10°C° 0 mm 1 m/S 751 mmHg 56%
    22:00 +10°C° 0 mm 1 m/S 751 mmHg 57%
    23:00 +9°C° 0 mm 1 m/S 751 mmHg 57%

    16 Dezember, Sonntag

    Zeit Temperatur Niederschläge Wind Luftdruck Luftfeuchtigkeit
    00:00 +9°C° 0 mm 1 m/S 751 mmHg 58%
    01:00 +9°C° 0 mm 1 m/S 751 mmHg 58%
    02:00 +9°C° 0 mm 1 m/S 751 mmHg 58%
    03:00 +8°C° 0 mm 1 m/S 752 mmHg 59%
    04:00 +8°C° 0 mm 1 m/S 752 mmHg 59%
    05:00 +8°C° 0 mm 1 m/S 752 mmHg 60%
    06:00 +7°C° 0 mm 2 m/S 753 mmHg 61%
    07:00 +7°C° 0 mm 2 m/S 753 mmHg 62%
    08:00 +8°C° 0 mm 2 m/S 754 mmHg 59%
    09:00 +9°C° 0 mm 2 m/S 754 mmHg 55%
    10:00 +10°C° 0 mm 2 m/S 754 mmHg 52%
    11:00 +10°C° 0 mm 2 m/S 754 mmHg 49%
    12:00 +12°C° 0 mm 2 m/S 754 mmHg 46%
    13:00 +13°C° 0 mm 2 m/S 754 mmHg 43%
    14:00 +13°C° 0 mm 2 m/S 754 mmHg 43%
    15:00 +13°C° 0 mm 2 m/S 754 mmHg 44%
    16:00 +12°C° 0 mm 3 m/S 754 mmHg 44%
    17:00 +11°C° 0 mm 3 m/S 754 mmHg 46%
    18:00 +10°C° 0 mm 2 m/S 754 mmHg 49%
    19:00 +10°C° 0 mm 2 m/S 755 mmHg 51%
    20:00 +9°C° 0 mm 2 m/S 755 mmHg 53%
    21:00 +9°C° 0 mm 2 m/S 754 mmHg 55%
    22:00 +8°C° 0 mm 2 m/S 754 mmHg 57%
    23:00 +8°C° 0 mm 2 m/S 754 mmHg 58%
    Mehr zeigen